When you browse on this site, cookies collect data to enhance your experience and personalize the content and advertising you see.
Visit our Privacy Policy to learn more. By continuing to use the site, you agree to this use of cookies and data.
  • En España
  • Lista de países
  • Para 7 días
  • Temperatura del agua
  • Mapa Satelital
  • El tiempo en el mapa
  • Informadores
  • user-avatar
    Iniciar sesión

    Tiempo cada hora Banja Luka

    Hoy, 18 Noviembre, Domingo

    Tiempo Temperatura Precipitaciones Viento Presión Humedad
    00:00 -2°C° 0 mm 2 mps 720 mmHg 86%
    01:00 -1°C° 0 mm 1 mps 720 mmHg 88%
    02:00 -1°C° 0 mm 1 mps 719 mmHg 87%
    03:00 -1°C° 0 mm 1 mps 719 mmHg 87%
    04:00 -3°C° 0 mm 2 mps 719 mmHg 87%
    05:00 -3°C° 0.1 mm 2 mps 719 mmHg 87%
    06:00 -3°C° 0.1 mm 2 mps 718 mmHg 86%
    07:00 -2°C° 0.1 mm 2 mps 718 mmHg 86%
    08:00 -2°C° 0.1 mm 2 mps 718 mmHg 82%
    09:00 -1°C° 0.1 mm 2 mps 718 mmHg 79%
    10:00 +1°C° 0.1 mm 2 mps 718 mmHg 76%
    11:00 +1°C° 0.1 mm 2 mps 717 mmHg 74%
    12:00 +2°C° 0.1 mm 2 mps 717 mmHg 72%
    13:00 +2°C° 0.1 mm 2 mps 716 mmHg 71%
    14:00 +2°C° 0 mm 2 mps 716 mmHg 74%
    15:00 +1°C° 0 mm 2 mps 715 mmHg 77%
    16:00 +1°C° 0 mm 2 mps 715 mmHg 79%
    17:00 +1°C° 0.1 mm 2 mps 714 mmHg 82%
    18:00 +1°C° 0.1 mm 1 mps 714 mmHg 84%
    19:00 +1°C° 0.1 mm 1 mps 713 mmHg 87%
    20:00 +1°C° 0 mm 1 mps 713 mmHg 87%
    21:00 +1°C° 0 mm 1 mps 713 mmHg 87%
    22:00 +1°C° 0 mm 1 mps 713 mmHg 87%
    23:00 +1°C° 0 mm 1 mps 712 mmHg 88%

    Mañana, 19 Noviembre, Lunes

    Tiempo Temperatura Precipitaciones Viento Presión Humedad
    00:00 +1°C° 0 mm 1 mps 712 mmHg 88%
    01:00 +1°C° 0 mm 1 mps 712 mmHg 89%
    02:00 0°C° 0 mm 1 mps 712 mmHg 89%
    03:00 0°C° 0 mm 1 mps 712 mmHg 90%
    04:00 0°C° 0 mm 1 mps 711 mmHg 91%
    05:00 -1°C° 0 mm 0 mps 711 mmHg 91%
    06:00 -1°C° 0 mm 0 mps 711 mmHg 91%
    07:00 -1°C° 0 mm 0 mps 711 mmHg 91%
    08:00 0°C° 0 mm 0 mps 712 mmHg 84%
    09:00 +3°C° 0 mm 1 mps 712 mmHg 76%
    10:00 +4°C° 0 mm 1 mps 712 mmHg 69%
    11:00 +5°C° 0 mm 1 mps 712 mmHg 66%
    12:00 +6°C° 0 mm 1 mps 712 mmHg 63%
    13:00 +7°C° 0 mm 1 mps 712 mmHg 60%
    14:00 +6°C° 0 mm 1 mps 712 mmHg 65%
    15:00 +5°C° 0 mm 1 mps 712 mmHg 70%
    16:00 +4°C° 0 mm 1 mps 712 mmHg 76%
    17:00 +3°C° 0 mm 1 mps 712 mmHg 80%
    18:00 +3°C° 0 mm 1 mps 712 mmHg 83%
    19:00 +2°C° 0 mm 1 mps 712 mmHg 87%
    20:00 +2°C° 0.2 mm 1 mps 712 mmHg 88%
    21:00 +2°C° 0.2 mm 1 mps 711 mmHg 89%
    22:00 +1°C° 0.2 mm 2 mps 711 mmHg 89%
    23:00 +2°C° 0.8 mm 2 mps 710 mmHg 89%

    Pasado mañana, 20 Noviembre, Martes

    Tiempo Temperatura Precipitaciones Viento Presión Humedad
    00:00 +2°C° 0.8 mm 2 mps 710 mmHg 90%
    01:00 +2°C° 0.8 mm 2 mps 709 mmHg 90%
    02:00 +2°C° 1.2 mm 2 mps 709 mmHg 91%
    03:00 +2°C° 1.2 mm 2 mps 708 mmHg 93%
    04:00 +2°C° 1.2 mm 2 mps 708 mmHg 94%
    05:00 +3°C° 0.4 mm 2 mps 707 mmHg 94%
    06:00 +3°C° 0.4 mm 2 mps 707 mmHg 94%
    07:00 +3°C° 0.4 mm 2 mps 706 mmHg 94%
    08:00 +3°C° 0.3 mm 3 mps 706 mmHg 92%
    09:00 +5°C° 0.3 mm 3 mps 706 mmHg 91%
    10:00 +7°C° 0.3 mm 3 mps 706 mmHg 89%
    11:00 +7°C° 1 mm 3 mps 706 mmHg 89%
    12:00 +8°C° 1 mm 3 mps 706 mmHg 88%
    13:00 +9°C° 1 mm 3 mps 705 mmHg 87%
    14:00 +9°C° 0.7 mm 2 mps 705 mmHg 89%
    15:00 +8°C° 0.7 mm 2 mps 705 mmHg 91%
    16:00 +8°C° 0.7 mm 2 mps 705 mmHg 93%
    17:00 +8°C° 0.3 mm 2 mps 705 mmHg 94%
    18:00 +7°C° 0.3 mm 2 mps 705 mmHg 95%
    19:00 +7°C° 0.3 mm 2 mps 705 mmHg 96%
    20:00 +7°C° 0 mm 2 mps 706 mmHg 96%
    21:00 +7°C° 0 mm 2 mps 706 mmHg 96%
    22:00 +8°C° 0 mm 1 mps 707 mmHg 96%
    23:00 +8°C° 0 mm 1 mps 707 mmHg 96%

    21 Noviembre, Miércoles

    Tiempo Temperatura Precipitaciones Viento Presión Humedad
    00:00 +7°C° 0 mm 1 mps 707 mmHg 96%
    01:00 +7°C° 0 mm 1 mps 707 mmHg 97%
    02:00 +7°C° 0 mm 1 mps 708 mmHg 97%
    03:00 +7°C° 0 mm 1 mps 708 mmHg 97%
    04:00 +6°C° 0 mm 1 mps 708 mmHg 97%
    05:00 +6°C° 0 mm 1 mps 709 mmHg 97%
    06:00 +6°C° 0 mm 1 mps 709 mmHg 96%
    07:00 +6°C° 0 mm 1 mps 709 mmHg 95%
    08:00 +7°C° 0 mm 1 mps 710 mmHg 90%
    09:00 +9°C° 0 mm 1 mps 711 mmHg 85%
    10:00 +10°C° 0 mm 1 mps 712 mmHg 79%
    11:00 +11°C° 0 mm 1 mps 712 mmHg 75%
    12:00 +12°C° 0 mm 1 mps 712 mmHg 70%
    13:00 +13°C° 0 mm 1 mps 713 mmHg 66%
    14:00 +11°C° 0 mm 1 mps 713 mmHg 72%
    15:00 +10°C° 0 mm 1 mps 713 mmHg 77%
    16:00 +9°C° 0 mm 1 mps 713 mmHg 83%
    17:00 +8°C° 0 mm 1 mps 713 mmHg 84%
    18:00 +8°C° 0 mm 1 mps 714 mmHg 85%
    19:00 +7°C° 0 mm 1 mps 714 mmHg 85%
    20:00 +7°C° 0 mm 1 mps 714 mmHg 84%
    21:00 +7°C° 0 mm 1 mps 715 mmHg 83%
    22:00 +7°C° 0 mm 1 mps 715 mmHg 82%
    23:00 +6°C° 0 mm 1 mps 715 mmHg 82%

    22 Noviembre, Jueves

    Tiempo Temperatura Precipitaciones Viento Presión Humedad
    00:00 +6°C° 0 mm 1 mps 715 mmHg 83%
    01:00 +6°C° 0 mm 1 mps 715 mmHg 83%
    02:00 +6°C° 0 mm 1 mps 715 mmHg 83%
    03:00 +6°C° 0 mm 1 mps 715 mmHg 83%
    04:00 +7°C° 0 mm 1 mps 715 mmHg 83%
    05:00 +7°C° 0.1 mm 1 mps 715 mmHg 84%
    06:00 +7°C° 0.1 mm 1 mps 715 mmHg 85%
    07:00 +7°C° 0.1 mm 1 mps 715 mmHg 87%
    08:00 +8°C° 0.4 mm 1 mps 716 mmHg 86%
    09:00 +9°C° 0.4 mm 1 mps 716 mmHg 85%
    10:00 +10°C° 0.4 mm 1 mps 716 mmHg 85%
    11:00 +11°C° 0.3 mm 1 mps 717 mmHg 83%
    12:00 +11°C° 0.3 mm 1 mps 717 mmHg 81%
    13:00 +12°C° 0.3 mm 1 mps 717 mmHg 79%
    14:00 +11°C° 0.1 mm 1 mps 717 mmHg 83%
    15:00 +11°C° 0.1 mm 1 mps 717 mmHg 86%
    16:00 +10°C° 0.1 mm 1 mps 717 mmHg 90%
    17:00 +9°C° 0 mm 1 mps 717 mmHg 91%
    18:00 +9°C° 0 mm 1 mps 717 mmHg 92%
    19:00 +8°C° 0 mm 1 mps 718 mmHg 93%
    20:00 +8°C° 0 mm 1 mps 718 mmHg 93%
    21:00 +7°C° 0 mm 1 mps 718 mmHg 93%
    22:00 +7°C° 0 mm 1 mps 718 mmHg 94%
    23:00 +7°C° 0 mm 1 mps 718 mmHg 93%

    23 Noviembre, Viernes

    Tiempo Temperatura Precipitaciones Viento Presión Humedad
    00:00 +7°C° 0 mm 1 mps 718 mmHg 93%
    01:00 +7°C° 0 mm 1 mps 719 mmHg 93%
    02:00 +6°C° 0 mm 1 mps 719 mmHg 93%
    03:00 +6°C° 0 mm 1 mps 719 mmHg 93%
    04:00 +6°C° 0 mm 1 mps 719 mmHg 93%
    05:00 +6°C° 0 mm 1 mps 719 mmHg 92%
    06:00 +6°C° 0 mm 1 mps 719 mmHg 92%
    07:00 +6°C° 0 mm 1 mps 719 mmHg 91%
    08:00 +8°C° 0 mm 1 mps 719 mmHg 86%
    09:00 +10°C° 0 mm 1 mps 720 mmHg 81%
    10:00 +11°C° 0 mm 1 mps 720 mmHg 76%
    11:00 +12°C° 0 mm 1 mps 720 mmHg 73%
    12:00 +13°C° 0 mm 1 mps 720 mmHg 70%
    13:00 +14°C° 0 mm 1 mps 719 mmHg 67%
    14:00 +13°C° 0.1 mm 1 mps 719 mmHg 73%
    15:00 +12°C° 0.1 mm 1 mps 719 mmHg 80%
    16:00 +11°C° 0.1 mm 1 mps 719 mmHg 86%
    17:00 +10°C° 0.2 mm 1 mps 719 mmHg 88%
    18:00 +10°C° 0.2 mm 1 mps 719 mmHg 90%
    19:00 +10°C° 0.2 mm 1 mps 719 mmHg 91%
    20:00 +10°C° 0.1 mm 1 mps 719 mmHg 92%
    21:00 +10°C° 0.1 mm 1 mps 719 mmHg 92%
    22:00 +9°C° 0.1 mm 1 mps 719 mmHg 93%
    23:00 +9°C° 0.2 mm 1 mps 719 mmHg 93%
    Mostrar más